Weather History for Buffalo, WY

Change the Weather History Date:

Monday, October 8, 2012

  Actual Average Record
Temperature  
Mean Temperature 45 °F 48 °F  
Max Temperature 53 °F 60 °F 73 °F (2004)
Min Temperature 36 °F 37 °F 24 °F (2000)
Degree Days  
Heating Degree Days 20 17  
Month to date heating degree days 124  
Since 1 July heating degree days 438  
Cooling Degree Days 0 0  
Month to date cooling degree days 0  
Year to date cooling degree days 491  
Moisture  
Dew Point 31 °F    
Average Humidity 61    
Maximum Humidity 93    
Minimum Humidity 34    
Precipitation  
Precipitation 0.01 in 0.04 in 0.09 in (2002)
Month to date precipitation 0.35  
Year to date precipitation 11.93  
Sea Level Pressure  
Sea Level Pressure 29.90 in    
Wind  
Wind Speed 9 mph (NNW)    
Max Wind Speed 20 mph    
Max Gust Speed 28 mph    
Visibility 10 miles    
Events Rain    
T = Trace of Precipitation, MM = Missing Value Source: NWS Daily Summary

Daily Weather History Graph

Daily Weather History Graph

Search for Another Location

Airport:

Trip Planner

Search our weather history database for the weather conditions in past years. The results will help you decide how hot, cold, wet, or windy it might be!

Date:

Astronomy

Oct. 08, 2012 Rise Set
Actual Time 7:13 AM MDT 6:33 PM MDT
Civil Twilight 6:44 AM MDT 7:02 PM MDT
Nautical Twilight 6:11 AM MDT 7:36 PM MDT
Astronomical Twilight 5:37 AM MDT 8:10 PM MDT
Moon No Moon Rise 2:39 PM MDT (10/8)
Length of Visible Light 12h 18m
Length of Day
11h 20m
Last Quarter, 46% of the Moon is Illuminated
Oct 8
Last Quarter
Oct 15
New
Oct 21
First Quarter
Oct 29
Full
Nov 6
Last Quarter

Hourly Weather History & Observations

Time (MDT) Temp. Windchill Dew Point Humidity Pressure Visibility Wind Dir Wind Speed Gust Speed Precip Events Conditions
12:53 AM 39.0 °F 34.8 °F 25.0 °F 57% 29.92 in 10.0 mi SW 5.8 mph - N/A   Clear
1:53 AM 46.9 °F - 21.9 °F 37% 29.90 in 10.0 mi Variable 3.5 mph - N/A   Clear
2:53 AM 45.0 °F - 23.0 °F 42% 29.88 in 10.0 mi Calm Calm - N/A   Clear
3:53 AM 44.1 °F 41.5 °F 23.0 °F 43% 29.87 in 10.0 mi WSW 4.6 mph - N/A   Clear
4:53 AM 41.0 °F 36.4 °F 24.1 °F 51% 29.88 in 10.0 mi WNW 6.9 mph - N/A   Clear
5:53 AM 44.1 °F 42.5 °F 21.9 °F 42% 29.87 in 10.0 mi Variable 3.5 mph - N/A   Clear
6:53 AM 44.1 °F 39.5 °F 24.1 °F 45% 29.89 in 10.0 mi West 8.1 mph - N/A   Clear
7:53 AM 48.0 °F - 21.0 °F 34% 29.88 in 10.0 mi West 3.5 mph - N/A   Clear
8:53 AM 48.0 °F - 25.0 °F 41% 29.90 in 10.0 mi Calm Calm - N/A   Clear
9:53 AM 48.0 °F - 27.0 °F 44% 29.90 in 10.0 mi NNW 10.4 mph - N/A   Clear
10:53 AM 50.0 °F - 28.0 °F 43% 29.89 in 10.0 mi NNW 13.8 mph 27.6 mph N/A   Clear
11:53 AM 52.0 °F - 28.9 °F 41% 29.86 in 10.0 mi North 15.0 mph 26.5 mph N/A   Clear
12:53 PM 53.1 °F - 30.9 °F 43% 29.88 in 10.0 mi North 16.1 mph 24.2 mph N/A   Overcast
1:53 PM 52.0 °F - 33.1 °F 49% 29.84 in 10.0 mi North 9.2 mph 24.2 mph N/A   Overcast
2:53 PM 50.0 °F - 34.0 °F 54% 29.85 in 10.0 mi NNW 10.4 mph - N/A   Overcast
3:53 PM 48.9 °F - 35.1 °F 59% 29.86 in 10.0 mi North 10.4 mph - N/A   Mostly Cloudy
4:53 PM 48.0 °F - 35.1 °F 61% 29.88 in 10.0 mi North 9.2 mph - N/A   Partly Cloudy
5:53 PM 46.9 °F - 36.0 °F 66% 29.88 in 10.0 mi North 11.5 mph 21.9 mph N/A   Mostly Cloudy
6:42 PM 44.6 °F 38.1 °F 37.4 °F 76% 29.93 in 10.0 mi NNW 13.8 mph 23.0 mph N/A   Mostly Cloudy
6:53 PM 44.1 °F 37.1 °F 37.0 °F 76% 29.91 in 10.0 mi NNW 15.0 mph 25.3 mph N/A   Mostly Cloudy
7:20 PM 42.8 °F 34.8 °F 37.4 °F 81% 29.93 in 10.0 mi NNW 17.3 mph 26.5 mph N/A   Mostly Cloudy
7:53 PM 43.0 °F 35.7 °F 37.9 °F 82% 29.91 in 10.0 mi North 15.0 mph 23.0 mph N/A   Overcast
8:10 PM 42.8 °F 34.5 °F 37.4 °F 81% 29.95 in 10.0 mi NNW 18.4 mph 25.3 mph N/A   Overcast
8:36 PM 39.2 °F 29.6 °F 37.4 °F 93% 29.95 in 10.0 mi North 19.6 mph 25.3 mph N/A   Overcast
8:53 PM 39.0 °F 30.6 °F 37.0 °F 93% 29.94 in 10.0 mi North 15.0 mph 24.2 mph N/A   Overcast
9:53 PM 37.9 °F 28.9 °F 36.0 °F 93% 29.97 in 10.0 mi North 16.1 mph 24.2 mph 0.00 in Rain Light Rain
10:49 PM 37.4 °F 28.2 °F 35.6 °F 93% 29.99 in 10.0 mi NNW 16.1 mph 26.5 mph 0.01 in   Overcast
11:53 PM 36.0 °F 25.6 °F 34.0 °F 93% 29.99 in 10.0 mi NNW 18.4 mph 26.5 mph 0.01 in Rain Light Rain